User: anonymous
Location: Chenango Forks
(42.2242°N, 75.8278°W)
Time: 17:59:15
(UTC-04:00)
Language:

Coronas F rocket - Orbit

View from above orbital plane
View from above orbital plane
View from above satellite
View from above satellite

Ground track
Ground track

The orbit data is extracted from the following two-line orbital elements,

1 26874U 01032B   14233.47653648  .00007895  00000-0  12353-3 0  7588
2 26874 082.4716 274.8441 0015685 168.3022 191.8599 15.53397830731438
Epoch (UTC): 21 August 2014 11:26:12
Eccentricity: 0.0015685
inclination: 82.4716°
perigee height: 396 km
apogee height: 417 km
right ascension of ascending node: 274.8441°
argument of perigee: 168.3022°
revolutions per day: 15.53397830
mean anomaly at epoch: 191.8599°
orbit number at epoch: 73143

The dashed part of the orbit path shows where the satellite is in the earth's shadow,  

DLR